FW6209 Weather Reports


Display with metric or nautical units.
time (UTC)temp
F
wind
direction
speed
MPH
gust
MPH
rain 1hr
in
rain 24hr
in
rain mn
in
humidity
%
barometer
mb
20260901220333 83 224 5.0 12.0 0.00 0.00 0.00 35 1014.1
20260901215827 82 191 6.0 13.0 0.00 0.00 0.00 36 1014.1
20260901215322 83 260 6.0 13.0 0.00 0.00 0.00 39 1014.1
20260901214816 83 203 5.0 12.0 0.00 0.00 0.00 38 1014.1
20260901214802 83 240 5.0 12.0 0.00 0.00 0.00 38 1014.1
20260901213804 83 217 5.0 12.0 0.00 0.00 0.00 39 1014.1
20260901213257 84 239 4.0 12.0 0.00 0.00 0.00 38 1014.1
20260901212751 84 240 4.0 11.0 0.00 0.00 0.00 38 1014.3
20260901212245 85 249 3.0 11.0 0.00 0.00 0.00 37 1014.2
20260901211739 85 255 2.0 11.0 0.00 0.00 0.00 38 1014.3
20260901211233 84 234 2.0 11.0 0.00 0.00 0.00 38 1014.3
20260901210728 84 214 3.0 11.0 0.00 0.00 0.00 39 1014.3
20260901210221 84 211 3.0 11.0 0.00 0.00 0.00 39 1014.4
20260901205715 85 250 3.0 10.0 0.00 0.00 0.00 39 1014.4
20260901205209 84 242 1.0 10.0 0.00 0.00 0.00 41 1014.4
20260901204704 84 213 2.0 9.0 0.00 0.00 0.00 41 1014.4
20260901204651 84 236 2.0 9.0 0.00 0.00 0.00 40 1014.5
20260901203651 84 182 2.0 8.0 0.00 0.00 0.00 40 1014.4
20260901203145 84 244 2.0 8.0 0.00 0.00 0.00 42 1014.5
20260901202639 84 211 2.0 8.0 0.00 0.00 0.00 42 1014.5
20260901202358 84 252 2.0 9.0 0.00 0.00 0.00 42 1014.5
20260901201628 85 231 2.0 9.0 0.00 0.00 0.00 42 1014.6
20260901201122 85 280 1.0 9.0 0.00 0.00 0.00 42 1014.5
20260901200615 85 189 2.0 9.0 0.00 0.00 0.00 42 1014.6
20260901200556 85 246 1.0 12.0 0.00 0.00 0.00 40 1014.7
20260901195604 85 190 1.0 12.0 0.00 0.00 0.00 40 1014.7
20260901195058 85 242 2.0 13.0 0.00 0.00 0.00 40 1014.7
20260901194551 85 248 2.0 13.0 0.00 0.00 0.00 40 1014.7
20260901194046 85 262 1.0 9.0 0.00 0.00 0.00 39 1014.8
20260901193804 85 234 0.0 5.0 0.00 0.00 0.00 39 1014.9
20260901193033 84 206 0.0 9.0 0.00 0.00 0.00 40 1014.9
20260901192527 84 198 0.0 9.0 0.00 0.00 0.00 41 1014.9
20260901192021 84 247 1.0 9.0 0.00 0.00 0.00 42 1015.0
20260901191515 83 243 1.0 9.0 0.00 0.00 0.00 44 1014.9
20260901191011 82 240 1.0 10.0 0.00 0.00 0.00 45 1015.0
20260901190503 82 263 1.0 10.0 0.00 0.00 0.00 46 1015.1
20260901185959 82 260 2.0 10.0 0.00 0.00 0.00 45 1015.1
20260901185451 82 270 2.0 10.0 0.00 0.00 0.00 46 1015.1
20260901185428 82 252 2.0 9.0 0.00 0.00 0.00 48 1015.1
20260901184439 81 238 1.0 8.0 0.00 0.00 0.00 50 1015.0
20260901184151 81 128 2.0 9.0 0.00 0.00 0.00 49 1015.2
20260901183428 81 226 2.0 9.0 0.00 0.00 0.00 50 1015.3
20260901182922 82 228 1.0 6.0 0.00 0.00 0.00 51 1015.2
20260901182416 81 248 0.0 0.0 0.00 0.00 0.00 51 1015.3
20260901181910 81 185 0.0 0.0 0.00 0.00 0.00 52 1015.1
20260901181404 80 273 0.0 4.0 0.00 0.00 0.00 52 1015.2
20260901180857 80 303 0.0 4.0 0.00 0.00 0.00 55 1015.4
20260901180351 80 335 0.0 2.0 0.00 0.00 0.00 56 1015.3
20260901180106 80 165 0.0 2.0 0.00 0.00 0.00 57 1015.3
20260901175339 79 326 0.0 2.0 0.00 0.00 0.00 59 1015.2
20260901174833 79 63 0.0 2.0 0.00 0.00 0.00 61 1015.2
20260901174329 78 298 0.0 2.0 0.00 0.00 0.00 60 1015.2
20260901173822 78 26 0.0 0.0 0.00 0.00 0.00 62 1015.2
20260901173537 77 19 0.0 0.0 0.00 0.00 0.00 65 1015.2
20260901172810 77 269 0.0 0.0 0.00 0.00 0.00 65 1015.1
20260901172305 76 233 0.0 0.0 0.00 0.00 0.00 66 1015.0
20260901171758 76 13 0.0 2.0 0.00 0.00 0.00 67 1015.1
20260901171252 75 319 0.0 2.0 0.00 0.00 0.00 68 1015.2
20260901171043 75 40 0.0 2.0 0.00 0.00 0.00 69 1015.2
20260901170239 75 0 0.0 2.0 0.00 0.00 0.00 69 1015.2
20260901165733 74 337 0.0 0.0 0.00 0.00 0.00 70 1015.2
20260901165229 74 313 0.0 2.0 0.00 0.00 0.00 71 1015.1
20260901164722 74 320 0.0 1.0 0.00 0.00 0.00 71 1014.9
20260901164215 73 13 0.0 2.0 0.00 0.00 0.00 72 1014.8
20260901163709 73 5 0.0 0.0 0.00 0.00 0.00 72 1015.0
20260901163204 73 346 0.0 0.0 0.00 0.00 0.00 72 1015.1
20260901162657 73 88 0.0 0.0 0.00 0.00 0.00 73 1014.9
20260901162152 73 251 0.0 1.0 0.00 0.00 0.00 73 1015.0
20260901161650 72 26 0.0 1.0 0.00 0.00 0.00 74 1015.0
20260901161139 72 9 0.0 0.0 0.00 0.00 0.00 74 1014.9
20260901160638 72 41 0.0 0.0 0.00 0.00 0.00 75 1014.8
20260901160128 71 12 0.0 0.0 0.00 0.00 0.00 76 1014.8
20260901155622 71 335 0.0 0.0 0.00 0.00 0.00 77 1014.7
20260901155115 70 315 0.0 0.0 0.00 0.00 0.00 79 1014.8
20260901154610 70 216 0.0 0.0 0.00 0.00 0.00 78 1014.6
20260901154104 70 286 0.0 0.0 0.00 0.00 0.00 77 1014.7
20260901153557 70 270 0.0 0.0 0.00 0.00 0.00 78 1014.6
20260901153052 70 313 0.0 0.0 0.00 0.00 0.00 78 1014.5
20260901152808 70 159 0.0 0.0 0.00 0.00 0.00 78 1014.4
20260901152039 70 254 0.0 0.0 0.00 0.00 0.00 78 1014.3
20260901151533 69 196 0.0 0.0 0.00 0.00 0.00 80 1014.3
20260901151028 68 178 0.0 0.0 0.00 0.00 0.00 82 1014.5
20260901150522 67 230 0.0 0.0 0.00 0.00 0.00 82 1014.5
20260901150247 67 182 0.0 0.0 0.00 0.00 0.00 83 1014.4
20260901145510 66 219 0.0 0.0 0.00 0.00 0.00 86 1014.5
20260901145004 65 227 0.0 0.0 0.00 0.00 0.00 88 1014.4
20260901144457 65 227 0.0 0.0 0.00 0.00 0.00 90 1014.5
20260901143951 65 225 0.0 0.0 0.00 0.00 0.00 91 1014.5
20260901143628 64 180 0.0 0.0 0.00 0.00 0.00 94 1014.4
20260901143522 65 225 0.0 0.0 0.00 0.00 0.00 92 1014.5
20260901143038 64 166 0.0 0.0 0.00 0.00 0.00 93 1014.4
20260901141927 64 196 0.0 0.0 0.00 0.00 0.00 95 1014.4
20260901141421 63 227 0.0 0.0 0.00 0.00 0.00 95 1014.6
20260901140916 63 226 0.0 0.0 0.00 0.00 0.00 95 1014.6
20260901140410 62 213 0.0 0.0 0.00 0.00 0.00 95 1014.5
20260901135903 62 197 0.0 0.0 0.00 0.00 0.00 95 1014.4
20260901135617 62 185 0.0 0.0 0.00 0.00 0.00 95 1014.3
20260901134851 62 184 0.0 0.0 0.00 0.00 0.00 95 1014.3
20260901134345 61 179 0.0 0.0 0.00 0.00 0.00 95 1014.1
20260901133839 61 187 0.0 0.0 0.00 0.00 0.00 95 1014.2
20260901133334 61 175 0.0 0.0 0.00 0.00 0.00 95 1014.2
20260901133049 61 188 0.0 0.0 0.00 0.00 0.00 94 1014.0
20260901132327 61 182 0.0 0.0 0.00 0.00 0.00 94 1013.9
20260901131826 61 181 0.0 0.0 0.00 0.00 0.00 95 1013.8
20260901131322 61 191 0.0 0.0 0.00 0.00 0.00 95 1013.9
20260901130823 61 160 0.0 0.0 0.00 0.00 0.00 95 1013.9
20260901130546 61 209 0.0 0.0 0.00 0.00 0.00 95 1013.6
20260901130049 61 182 0.0 0.0 0.00 0.00 0.00 95 1013.6
20260901125323 61 165 0.0 0.0 0.00 0.00 0.00 95 1013.6
20260901124822 61 189 0.0 0.0 0.00 0.00 0.00 96 1013.3
20260901124604 61 161 0.0 0.0 0.00 0.00 0.00 95 1013.2
20260901123818 60 169 0.0 0.0 0.00 0.00 0.00 95 1013.3
20260901123549 60 112 0.0 0.0 0.00 0.00 0.00 95 1013.3
20260901122816 60 112 0.0 0.0 0.00 0.00 0.00 94 1013.3
20260901122314 60 112 0.0 0.0 0.00 0.00 0.00 94 1013.2
20260901121813 61 95 0.0 0.0 0.00 0.00 0.00 94 1013.3
20260901121312 61 95 0.0 0.0 0.00 0.00 0.00 94 1013.3
20260901121035 61 95 0.0 0.0 0.00 0.00 0.00 94 1013.3
20260901120312 61 103 0.0 0.0 0.00 0.00 0.00 95 1013.3
20260901115811 62 96 0.0 0.0 0.00 0.00 0.00 94 1013.4
20260901115308 62 96 0.0 0.0 0.00 0.00 0.00 94 1013.4
20260901115026 62 84 0.0 0.0 0.00 0.00 0.00 94 1013.6
20260901114311 62 67 0.0 0.0 0.00 0.00 0.00 94 1013.7
20260901113811 62 67 0.0 0.0 0.00 0.00 0.00 94 1013.6
20260901113313 62 62 0.0 0.0 0.00 0.00 0.00 95 1013.7
20260901112813 62 25 0.0 0.0 0.00 0.00 0.00 95 1013.8
20260901112756 62 0 0.0 0.0 0.00 0.00 0.00 95 1013.8
20260901111808 62 329 0.0 0.0 0.00 0.00 0.00 95 1013.8
20260901111755 62 321 0.0 0.0 0.00 0.00 0.00 95 1013.8
20260901110805 62 321 0.0 0.0 0.00 0.00 0.00 95 1013.8
20260901110531 62 321 0.0 0.0 0.00 0.00 0.00 95 1013.8
20260901105805 62 321 0.0 0.0 0.00 0.00 0.00 95 1013.9
20260901105306 61 321 0.0 0.0 0.00 0.00 0.00 94 1013.9
20260901104806 61 321 0.0 0.0 0.00 0.00 0.00 94 1013.9
20260901104306 61 321 0.0 0.0 0.00 0.00 0.00 94 1013.8
20260901104027 61 321 0.0 0.0 0.00 0.00 0.00 94 1013.8
20260901103300 61 321 0.0 0.0 0.00 0.00 0.00 93 1013.8
20260901103022 61 321 0.0 0.0 0.00 0.00 0.00 93 1013.8
20260901102523 61 321 0.0 0.0 0.00 0.00 0.00 93 1013.4
20260901101801 61 321 0.0 0.0 0.00 0.00 0.00 93 1013.7
20260901101302 61 321 0.0 0.0 0.00 0.00 0.00 93 1013.7
20260901100802 61 321 0.0 0.0 0.00 0.00 0.00 93 1013.6
20260901100302 61 321 0.0 0.0 0.00 0.00 0.00 93 1013.7
20260901095802 61 321 0.0 0.0 0.00 0.00 0.00 93 1013.6
20260901095258 61 321 0.0 0.0 0.00 0.00 0.00 92 1013.8
20260901094756 61 321 0.0 0.0 0.00 0.00 0.00 91 1013.8
20260901094257 62 321 0.0 0.0 0.00 0.00 0.00 92 1013.8
20260901093758 62 321 0.0 0.0 0.00 0.00 0.00 92 1013.8
20260901093258 62 321 0.0 0.0 0.00 0.00 0.00 92 1013.8
20260901092757 62 321 0.0 0.0 0.00 0.00 0.00 92 1013.8
20260901092257 62 321 0.0 0.0 0.00 0.00 0.00 92 1013.7
20260901091757 62 321 0.0 0.0 0.00 0.00 0.00 92 1013.7
20260901091258 62 321 0.0 0.0 0.00 0.00 0.00 92 1013.8
20260901090754 62 321 0.0 0.0 0.00 0.00 0.00 91 1013.7
20260901090253 62 321 0.0 0.0 0.00 0.00 0.00 91 1013.7
20260901085755 62 321 0.0 0.0 0.00 0.00 0.00 91 1013.8
20260901085253 62 321 0.0 0.0 0.00 0.00 0.00 90 1013.8
20260901084752 63 321 0.0 0.0 0.00 0.00 0.00 90 1013.7
20260901084253 63 321 0.0 0.0 0.00 0.00 0.00 91 1013.8
20260901083754 63 321 0.0 0.0 0.00 0.00 0.00 91 1013.7
20260901083254 63 321 0.0 0.0 0.00 0.00 0.00 91 1013.8
20260901082755 63 321 0.0 0.0 0.00 0.00 0.00 88 1013.8
20260901082250 63 321 0.0 0.0 0.00 0.00 0.00 88 1013.8
20260901081751 63 321 0.0 0.0 0.00 0.00 0.00 89 1013.8
20260901081248 63 321 0.0 0.0 0.00 0.00 0.00 89 1013.8
20260901080750 63 321 0.0 0.0 0.00 0.00 0.00 89 1013.8
20260901080509 63 199 0.0 0.0 0.00 0.00 0.00 88 1013.7
20260901075750 63 199 0.0 0.0 0.00 0.00 0.00 88 1013.7
20260901075248 62 199 0.0 0.0 0.00 0.00 0.00 87 1013.7
20260901074749 62 199 0.0 0.0 0.00 0.00 0.00 85 1013.8
20260901074252 62 199 0.0 0.0 0.00 0.00 0.00 85 1013.9
20260901073754 63 199 0.0 0.0 0.00 0.00 0.00 86 1014.0
20260901073250 63 199 0.0 0.0 0.00 0.00 0.00 87 1014.0
20260901072750 63 199 0.0 0.0 0.00 0.00 0.00 87 1014.0
20260901072512 63 199 0.0 0.0 0.00 0.00 0.00 88 1014.0
20260901071749 63 199 0.0 0.0 0.00 0.00 0.00 88 1014.0
20260901071248 63 199 0.0 0.0 0.00 0.00 0.00 89 1014.0
20260901070749 63 199 0.0 0.0 0.00 0.00 0.00 89 1013.9
20260901070248 63 199 0.0 0.0 0.00 0.00 0.00 88 1013.9
20260901065749 63 199 0.0 0.0 0.00 0.00 0.00 88 1014.0
20260901065242 63 199 0.0 0.0 0.00 0.00 0.00 88 1014.0
20260901064736 63 199 0.0 0.0 0.00 0.00 0.00 87 1014.0
20260901064446 63 199 0.0 0.0 0.00 0.00 0.00 87 1013.9
20260901063724 64 199 0.0 0.0 0.00 0.00 0.00 87 1013.8
20260901063218 64 199 0.0 0.0 0.00 0.00 0.00 85 1014.0
20260901062951 64 199 0.0 0.0 0.00 0.00 0.00 85 1013.9
20260901062206 64 199 0.0 0.0 0.00 0.00 0.00 85 1013.9
20260901061703 64 199 0.0 0.0 0.00 0.00 0.00 84 1013.9
20260901061154 64 199 0.0 0.0 0.00 0.00 0.00 84 1013.9
20260901060648 64 199 0.0 0.0 0.00 0.00 0.00 83 1013.8
20260901060408 65 199 0.0 0.0 0.00 0.00 0.00 83 1014.0
20260901055637 65 199 0.0 0.0 0.00 0.00 0.00 81 1013.9
20260901055133 65 199 0.0 0.0 0.00 0.00 0.00 81 1013.9
20260901054627 65 199 0.0 0.0 0.00 0.00 0.00 81 1013.9
20260901054118 65 199 0.0 0.0 0.00 0.00 0.00 79 1013.8
20260901053612 65 199 0.0 0.0 0.00 0.00 0.00 79 1013.8
20260901053106 65 199 0.0 0.0 0.00 0.00 0.00 79 1013.9
20260901052600 66 199 0.0 0.0 0.00 0.00 0.00 78 1013.8
20260901052054 66 199 0.0 0.0 0.00 0.00 0.00 77 1013.8
20260901051548 66 199 0.0 0.0 0.00 0.00 0.00 77 1013.9
20260901051043 66 199 0.0 0.0 0.00 0.00 0.00 78 1013.7
20260901050537 66 199 0.0 0.0 0.00 0.00 0.00 78 1013.9
20260901050031 66 199 0.0 0.0 0.00 0.00 0.00 79 1013.9
20260901045524 66 199 0.0 0.0 0.00 0.00 0.00 79 1013.8
20260901045019 66 199 0.0 0.0 0.00 0.00 0.00 79 1013.8
20260901044512 67 199 0.0 0.0 0.00 0.00 0.00 80 1013.7
20260901044233 67 199 0.0 0.0 0.00 0.00 0.00 79 1013.7
20260901043501 67 164 0.0 0.0 0.00 0.00 0.00 79 1013.7
20260901042957 67 171 0.0 0.0 0.00 0.00 0.00 78 1013.6
20260901042944 67 189 0.0 0.0 0.00 0.00 0.00 78 1013.6
20260901041942 67 175 0.0 2.0 0.00 0.00 0.00 78 1013.6
20260901041703 67 191 0.0 2.0 0.00 0.00 0.00 77 1013.7
20260901040930 67 196 0.0 2.0 0.00 0.00 0.00 77 1013.6
20260901040424 67 188 0.0 2.0 0.00 0.00 0.00 77 1013.6
20260901040355 68 179 0.0 0.0 0.00 0.00 0.00 77 1013.6
20260901035636 68 173 0.0 0.0 0.00 0.00 0.00 76 1013.3
20260901034906 68 171 0.0 0.0 0.00 0.00 0.00 76 1013.2
20260901034407 68 178 0.0 0.0 0.00 0.00 0.00 77 1013.2
20260901033907 68 170 0.0 0.0 0.00 0.00 0.00 77 1013.2
20260901033407 69 160 0.0 0.0 0.00 0.00 0.00 76 1013.1
20260901033124 69 169 0.0 0.0 0.00 0.00 0.00 75 1013.0
20260901032403 69 187 0.0 0.0 0.00 0.00 0.00 75 1013.0
20260901031859 69 192 0.0 0.0 0.00 0.00 0.00 74 1012.8
20260901031358 69 207 0.0 0.0 0.00 0.00 0.00 74 1012.7
20260901030857 69 225 0.0 0.0 0.00 0.00 0.00 73 1012.6
20260901030359 70 184 0.0 1.0 0.00 0.00 0.00 73 1012.6
20260901025856 70 173 0.0 1.0 0.00 0.00 0.00 72 1012.5
20260901025356 71 196 0.0 1.0 0.00 0.00 0.00 71 1012.7
20260901024855 71 198 0.0 1.0 0.00 0.00 0.00 70 1012.6
20260901024354 72 190 0.0 0.0 0.00 0.00 0.00 68 1012.5
20260901023854 72 238 0.0 0.0 0.00 0.00 0.00 67 1012.4
20260901023354 73 221 0.0 0.0 0.00 0.00 0.00 66 1012.4
20260901022856 73 225 0.0 0.0 0.00 0.00 0.00 65 1012.4
20260901022355 74 210 0.0 0.0 0.00 0.00 0.00 64 1012.3
20260901021853 74 232 0.0 0.0 0.00 0.00 0.00 62 1012.3
20260901021352 75 232 0.0 0.0 0.00 0.00 0.00 60 1012.2
20260901021114 75 232 0.0 0.0 0.00 0.00 0.00 60 1012.1
20260901020340 76 232 0.0 0.0 0.00 0.00 0.00 59 1012.1
20260901015834 76 232 0.0 0.0 0.00 0.00 0.00 58 1012.2
20260901015330 76 236 0.0 0.0 0.00 0.00 0.00 57 1012.1
20260901015044 76 236 0.0 0.0 0.00 0.00 0.00 56 1012.0
20260901014318 76 279 0.0 0.0 0.00 0.00 0.00 57 1012.1
20260901013814 76 277 0.0 2.0 0.00 0.00 0.00 56 1012.1
20260901013535 77 248 0.0 2.0 0.00 0.00 0.00 56 1012.1
20260901012801 78 245 0.0 5.0 0.00 0.00 0.00 56 1011.9
20260901012252 78 233 0.0 5.0 0.00 0.00 0.00 54 1012.0
20260901011746 79 259 1.0 5.0 0.00 0.00 0.00 53 1012.1
20260901011240 79 204 1.0 6.0 0.00 0.00 0.00 53 1012.1
20260901010734 80 232 0.0 6.0 0.00 0.00 0.00 51 1012.1
20260901010228 80 173 0.0 7.0 0.00 0.00 0.00 49 1012.1
20260901005722 80 221 1.0 7.0 0.00 0.00 0.00 49 1012.3
20260901005216 80 165 1.0 6.0 0.00 0.00 0.00 45 1012.5
20260901004710 80 266 1.0 6.0 0.00 0.00 0.00 45 1012.4
20260901004204 81 205 1.0 6.0 0.00 0.00 0.00 45 1012.5
20260901003659 80 225 0.0 6.0 0.00 0.00 0.00 47 1012.4
20260901003423 80 225 0.0 6.0 0.00 0.00 0.00 47 1012.3
20260901002647 80 217 1.0 7.0 0.00 0.00 0.00 48 1012.3
20260901002141 80 246 2.0 7.0 0.00 0.00 0.00 50 1012.3
20260901001635 80 239 3.0 10.0 0.00 0.00 0.00 49 1012.5
20260901001129 80 227 3.0 10.0 0.00 0.00 0.00 49 1012.3
20260901000624 81 251 3.0 11.0 0.00 0.00 0.00 49 1012.3
20260901000115 81 248 3.0 11.0 0.00 0.00 0.00 46 1012.3
20260831235610 82 201 3.0 9.0 0.00 0.00 0.00 47 1012.3
20260831235105 82 243 3.0 10.0 0.00 0.00 0.00 46 1012.4
20260831234815 83 259 2.0 10.0 0.00 0.00 0.00 46 1012.3
20260831234052 83 244 0.0 8.0 0.00 0.00 0.00 44 1012.4
20260831233546 83 187 0.0 7.0 0.00 0.00 0.00 41 1012.4
20260831233041 82 213 0.0 8.0 0.00 0.00 0.00 42 1012.4
20260831232534 82 163 1.0 8.0 0.00 0.00 0.00 40 1012.3
20260831232249 83 268 2.0 8.0 0.00 0.00 0.00 47 1012.3
20260831231744 83 213 1.0 10.0 0.00 0.00 0.00 43 1012.3
20260831231017 83 287 1.0 10.0 0.00 0.00 0.00 45 1012.4
20260831230510 83 213 2.0 10.0 0.00 0.00 0.00 45 1012.3
20260831230004 82 208 3.0 11.0 0.00 0.00 0.00 46 1012.5
20260831225458 82 242 3.0 11.0 0.00 0.00 0.00 45 1012.5
20260831225214 83 251 2.0 11.0 0.00 0.00 0.00 46 1012.5
20260831224446 83 231 3.0 13.0 0.00 0.00 0.00 46 1012.6
20260831223940 83 205 4.0 13.0 0.00 0.00 0.00 45 1012.7
20260831223921 83 238 4.0 11.0 0.00 0.00 0.00 43 1012.6
20260831223419 83 234 3.0 11.0 0.00 0.00 0.00 44 1012.7
20260831222646 84 179 1.0 8.0 0.00 0.00 0.00 45 1012.7
20260831221916 83 229 2.0 13.0 0.00 0.00 0.00 43 1012.8
20260831221410 83 227 5.0 13.0 0.00 0.00 0.00 46 1012.9
20260831220904 83 230 4.0 13.0 0.00 0.00 0.00 46 1012.8